TimeCDT,TemperatureF,Dew PointF,Humidity,Sea Level PressureIn,VisibilityMPH,Wind Direction,Wind SpeedMPH,Gust SpeedMPH,PrecipitationIn,Events,Conditions,WindDirDegrees,DateUTC
12:53 AM,55.9,54.0,93,30.14,8.0,SSE,13.8,-,N/A,,Overcast,160,2012-10-13 05:53:00
1:53 AM,55.9,54.0,93,30.10,7.0,SSE,15.0,-,N/A,,Overcast,160,2012-10-13 06:53:00
2:53 AM,55.9,54.0,93,30.08,8.0,South,11.5,-,N/A,,Overcast,180,2012-10-13 07:53:00
3:53 AM,57.0,55.0,93,30.07,9.0,South,13.8,-,N/A,,Overcast,170,2012-10-13 08:53:00
4:53 AM,57.0,55.9,96,30.08,8.0,South,11.5,-,N/A,,Overcast,180,2012-10-13 09:53:00
5:53 AM,59.0,57.0,93,30.08,8.0,South,13.8,-,N/A,,Overcast,170,2012-10-13 10:53:00
6:53 AM,60.1,57.9,93,30.07,7.0,SSE,12.7,-,N/A,,Overcast,160,2012-10-13 11:53:00
7:53 AM,62.1,60.1,93,30.05,5.0,South,18.4,23.0,N/A,,Overcast,190,2012-10-13 12:53:00
8:53 AM,63.0,60.1,90,30.06,6.0,SSW,13.8,21.9,N/A,,Overcast,200,2012-10-13 13:53:00
9:53 AM,64.9,61.0,87,30.05,6.0,South,13.8,-,N/A,,Overcast,190,2012-10-13 14:53:00
10:32 AM,68.0,62.6,83,30.05,8.0,South,19.6,24.2,N/A,,Mostly Cloudy,190,2012-10-13 15:32:00
10:53 AM,69.1,62.1,78,30.03,9.0,SSW,16.1,21.9,N/A,,Partly Cloudy,200,2012-10-13 15:53:00
11:53 AM,71.1,62.1,73,29.99,10.0,South,16.1,23.0,N/A,,Mostly Cloudy,180,2012-10-13 16:53:00
12:53 PM,75.0,62.1,64,29.97,10.0,SSW,20.7,29.9,N/A,,Clear,200,2012-10-13 17:53:00
1:53 PM,73.9,62.1,66,29.94,10.0,SSW,23.0,32.2,N/A,,Mostly Cloudy,200,2012-10-13 18:53:00
2:03 PM,73.4,62.6,69,29.95,10.0,SSW,18.4,29.9,N/A,,Partly Cloudy,210,2012-10-13 19:03:00
2:53 PM,73.4,62.6,69,29.93,10.0,South,20.7,28.8,N/A,,Mostly Cloudy,190,2012-10-13 19:53:00
3:17 PM,73.4,62.6,69,29.92,10.0,South,16.1,24.2,N/A,,Scattered Clouds,190,2012-10-13 20:17:00
3:53 PM,73.0,62.1,68,29.89,10.0,South,12.7,21.9,N/A,,Mostly Cloudy,180,2012-10-13 20:53:00
4:53 PM,73.0,62.1,68,29.87,10.0,South,18.4,-,N/A,,Overcast,180,2012-10-13 21:53:00
5:21 PM,71.6,62.6,73,29.88,10.0,South,11.5,23.0,N/A,,Overcast,170,2012-10-13 22:21:00
5:53 PM,72.0,62.1,71,29.86,10.0,South,11.5,-,N/A,,Overcast,170,2012-10-13 22:53:00
6:27 PM,71.6,60.8,69,29.88,6.0,South,17.3,25.3,0.03,Rain,Light Rain,180,2012-10-13 23:27:00
6:53 PM,69.8,62.6,78,29.87,10.0,South,15.0,21.9,N/A,,Overcast,190,2012-10-13 23:53:00
7:53 PM,70.0,62.1,76,29.84,10.0,South,13.8,25.3,0.00,,Overcast,170,2012-10-14 00:53:00
8:53 PM,70.0,62.1,76,29.81,10.0,South,16.1,23.0,N/A,,Scattered Clouds,170,2012-10-14 01:53:00
9:53 PM,69.1,64.0,84,29.78,5.0,South,13.8,23.0,0.04,Rain,Heavy Rain,170,2012-10-14 02:53:00
10:40 PM,66.2,64.4,94,29.81,5.0,SW,11.5,24.2,N/A,Rain-Thunderstorm,Light Rain,230,2012-10-14 03:40:00
10:51 PM,66.2,64.4,94,29.80,1.8,SSW,8.1,-,N/A,Rain-Thunderstorm,Heavy Thunderstorms and Rain,210,2012-10-14 03:51:00
10:53 PM,66.2,64.4,94,29.80,1.5,SSW,8.1,-,N/A,Rain-Thunderstorm,Heavy Thunderstorms and Rain,200,2012-10-14 03:53:00
11:06 PM,66.2,64.4,94,29.79,3.0,South,15.0,21.9,0.06,Rain-Thunderstorm,Heavy Thunderstorms and Rain,180,2012-10-14 04:06:00
11:14 PM,66.2,64.4,94,29.84,4.0,WSW,21.9,28.8,0.07,Rain,Rain,250,2012-10-14 04:14:00
11:19 PM,64.4,62.6,94,29.84,1.8,West,17.3,29.9,0.23,Rain,Heavy Rain,260,2012-10-14 04:19:00
11:34 PM,62.6,60.8,94,29.82,3.0,SSW,8.1,-,0.37,Rain,Rain,200,2012-10-14 04:34:00
11:53 PM,62.6,60.8,94,29.80,4.0,SSW,8.1,-,N/A,Rain,Rain,210,2012-10-14 04:53:00